User: anonymous   Login
Location: Blanot
(47.1713°N, 4.2340°E)
Time: 07:29:02
(UTC+00:00)
Language:

Cosmos 1833 Rocket - Orbit

View from above orbital plane
View from above orbital plane
View from above satellite
View from above satellite

Ground track
Ground track

The orbit data is extracted from the following two-line orbital elements,

1 17590U 87027B   20265.92102741 -.00000246 +00000-0 -99010-4 0  9994
2 17590 071.0033 158.2544 0007401 280.2605 079.7683 14.16788460732829
Epoch (UTC): 21 September 2020 22:06:16
Eccentricity: 0.0007401
inclination: 71.0033°
perigee height: 831 km
apogee height: 841 km
right ascension of ascending node: 158.2544°
argument of perigee: 280.2605°
revolutions per day: 14.16788460
mean anomaly at epoch: 79.7683°
orbit number at epoch: 73282

The dashed part of the orbit path shows where the satellite is in the earth's shadow,  

DLR